Location: Camerons Lookout
(40.9833°S, 175.9333°E)
Time: 18:09:48
(UTC+00:00)

Cosmos 1697 Rocket - Visible Passes

Search period start: 11 April 2026 00:00
Search period end: 21 April 2026 00:00
Orbit: 830 x 843 km, 71.0° (Epoch: 11 April)

Date Brightness Start Highest point End Pass type
(mag) Time Alt. Az. Time Alt. Az. Time Alt. Az.
11 Apr 5.1 15:20:29 14° ENE 15:22:31 16° E 15:25:52 10° ESE visible
11 Apr 2.6 17:02:16 23° NW 17:05:47 68° WSW 17:11:27 10° SSE visible
12 Apr 5.2 15:05:31 15° ENE 15:06:02 15° E 15:09:03 10° ESE visible
12 Apr 2.6 16:47:18 42° NW 16:49:14 74° WSW 16:54:55 10° SSE visible
13 Apr 5.3 14:50:20 13° E 14:50:20 13° E 14:52:09 10° ESE visible
13 Apr 2.5 16:32:06 71° NW 16:32:41 80° WSW 16:38:23 10° SSE visible
13 Apr 4.4 18:14:48 10° WSW 18:17:35 14° SW 18:20:22 10° SSW visible
14 Apr 5.6 14:35:00 10° ESE 14:35:00 10° ESE 14:35:10 10° ESE visible
14 Apr 2.7 16:16:45 72° S 16:16:45 72° S 16:21:50 10° SSE visible
14 Apr 4.4 17:58:31 12° WSW 18:00:57 15° SW 18:04:03 10° SSW visible
15 Apr 3.4 16:01:17 48° SSE 16:01:17 48° SSE 16:05:18 10° SSE visible
15 Apr 4.3 17:43:02 15° WSW 17:44:20 16° SW 17:47:41 10° SSW visible
16 Apr 4.0 15:45:42 33° SSE 15:45:42 33° SSE 15:48:45 10° SSE visible
16 Apr 4.2 17:27:27 17° SW 17:27:43 17° SW 17:31:18 10° S visible
17 Apr 4.6 15:30:03 24° SSE 15:30:03 24° SSE 15:32:10 10° SSE visible
17 Apr 4.3 17:11:47 18° SW 17:11:47 18° SW 17:14:54 10° S visible
18 Apr 5.0 15:14:18 18° SSE 15:14:18 18° SSE 15:15:37 10° SSE visible
18 Apr 4.4 16:56:02 17° SSW 16:56:02 17° SSW 16:58:29 10° S visible
19 Apr 5.4 14:58:30 13° SSE 14:58:30 13° SSE 14:59:03 10° SSE visible
19 Apr 4.6 16:40:14 16° SSW 16:40:14 16° SSW 16:42:03 10° S visible
20 Apr 4.8 16:24:23 15° SSW 16:24:23 15° SSW 16:25:37 10° S visible
